Regional Weather Roundup
Issued by NWS Portland, ME

Current Version | Previous Version | Text Only | Print | Product List | Glossary On
Versions: 1 2 3 4 5 6 7 8 9 10 11 12 13 14 15 16 17 18 19 20 21 22 23 24 25 26 27 28 29 30 31 32 33 34 35 36 37 38 39 40 41 42 43 44 45 46 47 48 49 50
000
ASUS41 KGYX 211710
RWRGYX
WEATHER ROUNDUP FOR MAINE AND NEW HAMPSHIRE
NATIONAL WEATHER SERVICE GRAY ME
1200 PM EST SUN JAN 21 2018

MEZ002-005-006-010-012-015-018-020-021-024-026-027-029-211800-
MAINE

CITY           SKY/WX    TMP DP  RH WIND       PRES   REMARKS
PORTLAND       PTSUNNY   40  29  64 VRB3      30.09F
SANFORD        FAIR      40  30  67 SW8       30.10F
BAR HARBOR     FAIR      39  19  44 W12       30.06F
WISCASSET      FAIR      42  25  50 W6        30.09F
ROCKLAND       FAIR      40  24  53 W9        30.07F
FRYEBURG       FAIR      42  25  50 NW17G25   30.07F
LEWISTONAUBURN PTSUNNY   42  24  49 NW10      30.07F
AUGUSTA        FAIR      41  22  46 W15G26    30.06F
WATERVILLE     FAIR      39  21  48 NW8       30.01F
BANGOR         PTSUNNY   35  17  47 NE5       30.05F
GREENVILLE       N/A     25  12  58 NW17G25   29.97F WCI  12
MILLINOCKET    FAIR      27   9  46 W13G23    30.05F WCI  16
HOULTON        FAIR      23   8  52 W7        30.00F
PRESQUE ISLE   FAIR      21   6  52 W8        30.01F
FRENCHVILLE    FAIR      16   0  49 NW12      29.96F WCI   3
CARIBOU        FAIR      21   4  47 NW7       29.99F
$$

NHZ002-005-008-009-011-012-014-211800-
NEW HAMPSHIRE

CITY           SKY/WX    TMP DP  RH WIND       PRES   REMARKS
PORTSMOUTH     PTSUNNY   42  29  61 NW12      30.09F
ROCHESTER      FAIR      39  31  72 VRB5      30.10F
NASHUA         FAIR      46  29  51 NW10G18   30.12F
MANCHESTER     PTSUNNY   46  29  51 VRB5      30.10F
CONCORD        FAIR      38  31  76 CALM      30.11F
LACONIA        PTSUNNY   43  26  51 NW10G23   30.09F
PLYMOUTH       FAIR      40  28  60 NW6       30.09F
BERLIN         CLOUDY    35  24  64 CALM      30.06R
WHITEFIELD     CLOUDY    35  25  66 W8        30.09S
JAFFREY        FAIR      43  29  57 W5        30.09F
KEENE          PTSUNNY   42  32  67 N6        30.13F
LEBANON        FAIR      43  30  60 CALM      30.09F
MT WASHINGTON  FOG       14  14 100 W47G56      N/A  VSB 1/16WCI -11
$$

VTZ005-007-008-211800-
VERMONT

CITY           SKY/WX    TMP DP  RH WIND       PRES   REMARKS
ST JOHNSBURY     N/A     36  26  67 MISG      30.09F
MONTPELIER     CLOUDY    35  29  78 N5        30.12F
BURLINGTON     PTSUNNY   39  26  59 CALM      30.13F
$$

MAZ007-012-024-CTZ003-RIZ002-NYZ038-NYZ072-211800-
SOUTHERN NEW ENGLAND AND NY

CITY           SKY/WX    TMP DP  RH WIND       PRES   REMARKS
BOSTON         FAIR      47  31  53 SW6       30.13F
WORCESTER      FAIR      41  27  57 CALM      30.10F
NANTUCKET      FAIR      47  31  53 NW10      30.12F
PROVIDENCE     FAIR      49  31  49 N8        30.14F
HARTFORD       FAIR      46  31  55 NE5       30.15F
ALBANY         CLOUDY    39  29  67 W7        30.17F
NEW YORK CITY  PTSUNNY   47  29  49 NW7       30.17F
$$

ANZ081-ANZ082-ANZ150-NHZ014-MEZ023>029-211800-
COASTAL MARINE OBSERVATIONS

STATION/POSITION TIME  TEMP    WIND        PRES    WAVE
                       AIR SEA DIR/SP/G            HT/PER
                 (UTC) (F)     (DEG/KT/KT) (MB)    (FT/S)
MOUNT DESERT ROC 1700   37     280/  4/  5 1018.1F
MATINICUS ROCK   1600   39     290/ 14/ 16 1018.1F
ISLE OF SHOALS   1600   41     270/  9/ 11 1020.1R
JEFFREYS LEDGE   1606      43                N/A     2/ 3
GEORGES BANK BUO 1550   48 59              1015.8   11/10
$$

.............KEY..............
   WCI - WIND CHILL
   TC  - TEMPERATURE IN CELSIUS
   VSB - VISIBILITY IN MILES
   HX  - HEAT INDEX
   FAIR- INDICATES FEW OR NO CLOUDS BELOW 12,000 FT, WITH NO
         SIGNIFICANT WEATHER AND/OR OBSTRUCTIONS TO VISIBILITY.






USA.gov is the U.S. government's official web portal to all federal, state and local government web resources and services.